User: anonymous   Login
Location: Barnston
(51.8500°N, 0.4000°E)
Time: 22:51:06
(UTC+00:00)
Language:

USA 215 - Orbit

View from above orbital plane
View from above orbital plane
View from above satellite
View from above satellite

Ground track
Ground track

The orbit data is extracted from the following two-line orbital elements,

1 37162U 10046A   24050.87550105 0.00000000  00000-0  00000-0 0    05
2 37162 123.0036 183.6885 0003544  70.6199 289.3801 13.41471266    09
Epoch (UTC): 19 February 2024 21:00:43
Eccentricity: 0.0003544
inclination: 123.0036°
perigee height: 1101 km
apogee height: 1106 km
right ascension of ascending node: 183.6885°
argument of perigee: 70.6199°
revolutions per day: 13.41471266
mean anomaly at epoch: 289.3801°
orbit number at epoch: 0

The dashed part of the orbit path shows where the satellite is in the earth's shadow,  

DLR